Back to catalog

PRAETORIAN SDA_618

AliveMilitaryPO
NORAD 65581·PAYLOAD·🇺🇸 United States

Launched Sep 10, 2025 from Vandenberg Space Force Base

Loading…

Next Passes (next 24 hours)

TLE

FreshSource: Space-Track

Epoch: Sep 14, 2026, 09:18 UTC

1 65581U 25203S   26257.38796596  .00000110  00000-0  88385-4 0  9990
2 65581  81.2996 287.8653 0008961 318.9918  41.0564 13.84231167 51051

Track PRAETORIAN SDA_618 in real time with AllMySat

Download on the App Store